Home   Weather   Olsztyn   Past weeks

Flag for Poland Past Weather in Olsztyn, Poland — Yesterday and Last 2 Weeks

Now
33 °F

Fog.


Feels Like: 27 °F
Forecast: 29 / 37 °F
Wind: 7 mph from Southwest

Location: Ketrzyn

Current Time: Dec 5, 2016 at 3:45:22 am

Latest Report: Dec 5, 2016 at 3:00 am


Visibility: 3 mi

Pressure: 30.26 "Hg

Humidity: 93%

Dew Point: 32 °F

Location of OlsztynLocation

Past Weather in Olsztyn — Graph

°F

Olsztyn Temperature Yesterday

Maximum temperature yesterday: 30 °F (at 11:00 pm)
Minimum temperature yesterday: 19 °F (at 6:00 am)
Average temperature yesterday: 25 °F

High & Low Weather Summary for the Past Weeks

 TemperatureHumidityPressure
High49 °F (Nov 21, 11:00 am)100% (Nov 24, 10:00 am)30.37 "Hg (Nov 24, 10:00 am)
Low19 °F (Nov 28, 6:00 pm)72% (Nov 29, 1:00 pm)29.41 "Hg (Dec 1, 11:00 pm)
Average35 °F91%30.00 "Hg
* Reported Nov 20 2:00 am — Dec 5 2:00 am, Olsztyn, Weather by CustomWeather, © 2016

Note: Actual official high and low records may vary slightly from our data, if they occured in-between our weather recording intervals... More about our weather records

Advertising

Olsztyn Weather History for the Previous 24 Hours

Scroll right to see more
 ConditionsComfort  
Time TempWeatherWind HumidityBarometerVisibility
2:00 am
Mon, Dec 5
33 °FFog.7 mph93%30.28 "Hg3 mi
1:00 am32 °FFog.5 mph93%30.29 "Hg3 mi
12:00 am31 °FFog.6 mph94%30.31 "Hg4 mi
11:00 pm
Sun, Dec 4
30 °FFog.7 mph95%30.32 "Hg2 mi
10:00 pm30 °FFog.7 mph96%30.34 "Hg2 mi
9:00 pm30 °FFog.3 mph96%30.36 "Hg2 mi
8:00 pm30 °FFog.5 mph96%30.36 "Hg2 mi
7:00 pm30 °FFog.5 mph96%30.36 "Hg3 mi
6:00 pm29 °FFog.3 mph96%30.36 "Hg3 mi
5:00 pm29 °FFog.3 mph97%30.36 "Hg3 mi
4:00 pm28 °FFog.3 mph98%30.37 "Hg2 mi
3:00 pm25 °FFog.5 mph96%30.37 "Hg4 mi
2:00 pm24 °FCold.2 mph93%30.37 "Hg6 mi
1:00 pm24 °FCold.1 mph94%30.37 "Hg9 mi
12:00 pm23 °FCold.2 mph93%30.36 "Hg7 mi
11:00 am23 °FCold.2 mph95%30.37 "Hg4 mi
10:00 am22 °FDuststorm.2 mph96%30.36 "Hg0 mi
9:00 am22 °FDuststorm.1 mph96%30.34 "Hg0 mi
8:00 am22 °FDuststorm.1 mph96%30.32 "Hg0 mi
7:00 am21 °FDuststorm.1 mph96%30.30 "Hg1 mi
6:00 am19 °FDuststorm.1 mph95%30.28 "Hg0 mi
5:00 am20 °FDuststorm.2 mph95%30.26 "Hg0 mi
4:00 am21 °FCold.1 mph96%30.24 "Hg1 mi
3:00 am23 °FCold.1 mph96%30.22 "Hg6 mi
Weather by CustomWeather, © 2016

See weather overviewHow to use our weather pages